Belen, NM

6:22 PM MST on November 23, 2017 (GMT -0700)
Belen

Weather History for KE80 - March, 2013

Change the Weather History Date:

Monday, March 4, 2013

  Actual Average (KABQ) Record (KABQ)
Temperature  
Mean Temperature 52 °F -  
Max Temperature 66 °F 55 °F 77 °F (1972)
Min Temperature 37 °F 28 °F 10 °F (1966)
Degree Days  
Heating Degree Days 12    
Growing Degree Days 2 (Base 50)    
Moisture  
Dew Point 18 °F    
Average Humidity 24    
Maximum Humidity 45    
Minimum Humidity 14    
Precipitation  
Precipitation 0.00 in - - ()
Sea Level Pressure  
Sea Level Pressure 29.93 in    
Wind  
Wind Speed 11 mph (West)    
Max Wind Speed 34 mph    
Max Gust Speed 44 mph    
Visibility 10 miles    
Events      
Averages and records for this station are not official NWS values.
T = Trace of Precipitation, MM = Missing Value Source: NWS Daily Summary

Daily Weather History Graph

Daily Weather History Graph

Search for Another Location

Airport or City:

Trip Planner

Search our weather history database for the weather conditions in past years. The results will help you decide how hot, cold, wet, or windy it might be!

Date:

Astronomy

Mar. 04, 2013 Rise Set
Actual Time 6:32 AM MST 6:06 PM MST
Civil Twilight 6:07 AM MST 6:31 PM MST
Nautical Twilight 5:37 AM MST 7:00 PM MST
Astronomical Twilight 5:08 AM MST 7:29 PM MST
Moon 12:34 AM MST (3/4) 11:00 AM MST (3/4)
Length of Visible Light 12h 24m
Length of Day
11h 33m
Waning Gibbous, 51% of the Moon is Illuminated
Mar 4
Waning Gibbous
Mar 4
Last Quarter
Mar 11
New
Mar 19
First Quarter
Mar 27
Full

Hourly Weather History & Observations

Time (MST) Temp. Windchill Dew Point Humidity Pressure Visibility Wind Dir Wind Speed Gust Speed Precip Events Conditions
12:15 AM 52.5 °F - 19.9 °F 28% 29.93 in 10.0 mi SW 8.1 mph - N/A   Scattered Clouds
1:15 AM 48.7 °F - 19.8 °F 32% 29.93 in 10.0 mi Calm Calm - N/A   Clear
1:35 AM 50.5 °F - 20.1 °F 30% 29.93 in 10.0 mi Calm Calm - N/A   Scattered Clouds
1:55 AM 51.3 °F - 20.1 °F 29% 29.91 in 10.0 mi WSW 4.6 mph - N/A   Scattered Clouds
2:15 AM 53.1 °F - 19.4 °F 27% 29.91 in 10.0 mi WSW 8.1 mph - N/A   Scattered Clouds
2:35 AM 52.7 °F - 18.9 °F 26% 29.91 in 10.0 mi WSW 9.2 mph - N/A   Scattered Clouds
2:55 AM 49.6 °F - 18.5 °F 29% 29.91 in 10.0 mi WSW 8.1 mph - N/A   Overcast
3:15 AM 50.0 °F - 18.3 °F 29% 29.90 in 10.0 mi West 8.1 mph - N/A   Overcast
3:35 AM 51.8 °F - 18.0 °F 26% 29.90 in 10.0 mi WSW 9.2 mph - N/A   Overcast
3:55 AM 51.4 °F - 17.8 °F 26% 29.90 in 10.0 mi West 3.5 mph - N/A   Overcast
4:15 AM 52.3 °F - 16.9 °F 25% 29.90 in 10.0 mi WNW 9.2 mph - N/A   Overcast
4:35 AM 53.6 °F - 16.3 °F 23% 29.90 in 10.0 mi WNW 10.4 mph - N/A   Overcast
4:55 AM 53.2 °F - 16.3 °F 23% 29.91 in 10.0 mi WNW 10.4 mph 18.4 mph N/A   Mostly Cloudy
5:15 AM 50.0 °F - 16.7 °F 27% 29.91 in 10.0 mi West 9.2 mph - N/A   Mostly Cloudy
5:35 AM 53.2 °F - 17.1 °F 24% 29.91 in 10.0 mi West 11.5 mph - N/A   Overcast
5:55 AM 51.8 °F - 17.2 °F 26% 29.91 in 10.0 mi West 6.9 mph - N/A   Overcast
6:15 AM 51.6 °F - 17.4 °F 26% 29.91 in 10.0 mi North 4.6 mph - N/A   Overcast
6:55 AM 51.3 °F - 16.0 °F 25% 29.92 in 10.0 mi WNW 9.2 mph - N/A   Overcast
7:15 AM 50.2 °F - 16.3 °F 26% 29.93 in 10.0 mi WSW 6.9 mph - N/A   Overcast
7:35 AM 50.2 °F - 17.4 °F 27% 29.93 in 10.0 mi SW 5.8 mph - N/A   Overcast
7:55 AM 52.7 °F - 17.6 °F 25% 29.93 in 10.0 mi SW 3.5 mph - N/A   Overcast
8:15 AM 55.9 °F - 17.2 °F 22% 29.93 in 10.0 mi SW 5.8 mph - N/A   Overcast
8:35 AM 57.0 °F - 16.9 °F 21% 29.93 in 10.0 mi WSW 5.8 mph - N/A   Mostly Cloudy
8:55 AM 58.1 °F - 16.0 °F 19% 29.93 in 10.0 mi West 9.2 mph - N/A   Overcast
9:15 AM 58.3 °F - 16.5 °F 20% 29.93 in 10.0 mi NW 6.9 mph - N/A   Overcast
9:35 AM 60.3 °F - 17.2 °F 19% 29.92 in 10.0 mi West 11.5 mph - N/A   Overcast
9:55 AM 61.5 °F - 18.7 °F 19% 29.91 in 10.0 mi WNW 8.1 mph 25.3 mph N/A   Overcast
10:15 AM 60.8 °F - 20.5 °F 21% 29.91 in 10.0 mi WNW 16.1 mph 23.0 mph N/A   Overcast
10:35 AM 60.8 °F - 22.1 °F 23% 29.91 in 10.0 mi West 18.4 mph 27.6 mph N/A   Overcast
10:55 AM 61.2 °F - 21.2 °F 22% 29.90 in 10.0 mi West 19.6 mph 32.2 mph N/A   Overcast
11:15 AM 61.5 °F - 21.9 °F 22% 29.89 in 10.0 mi WNW 18.4 mph 27.6 mph N/A   Overcast
11:35 AM 62.2 °F - 21.4 °F 21% 29.88 in 10.0 mi West 21.9 mph 31.1 mph N/A   Overcast
11:55 AM 64.4 °F - 20.5 °F 19% 29.87 in 10.0 mi West 28.8 mph 34.5 mph N/A   Mostly Cloudy
12:15 PM 66.4 °F - 20.7 °F 18% 29.87 in 10.0 mi West 27.6 mph 34.5 mph N/A   Scattered Clouds
12:35 PM 66.0 °F - 20.1 °F 17% 29.85 in 10.0 mi West 31.1 mph 40.3 mph N/A   Clear
12:55 PM 66.2 °F - 19.6 °F 17% 29.85 in 10.0 mi West 31.1 mph 38.0 mph N/A   Clear
1:15 PM 66.2 °F - 19.0 °F 16% 29.84 in 10.0 mi WNW 31.1 mph 38.0 mph N/A   Clear
1:35 PM 66.2 °F - 17.6 °F 15% 29.83 in 10.0 mi West 29.9 mph 40.3 mph N/A   Clear
1:55 PM 66.6 °F - 17.1 °F 15% 29.84 in 10.0 mi West 31.1 mph 43.7 mph N/A   Clear
2:15 PM 66.7 °F - 16.2 °F 14% 29.84 in 10.0 mi West 34.5 mph 41.4 mph N/A   Clear
2:35 PM 66.4 °F - 17.4 °F 15% 29.83 in 10.0 mi WNW 33.4 mph 41.4 mph N/A   Clear
2:55 PM 66.2 °F - 16.7 °F 15% 29.84 in 10.0 mi WNW 31.1 mph 39.1 mph N/A   Clear
3:15 PM 65.8 °F - 15.6 °F 14% 29.86 in 10.0 mi WNW 28.8 mph 36.8 mph N/A   Clear
3:35 PM 65.3 °F - 14.7 °F 14% 29.87 in 10.0 mi WNW 31.1 mph 40.3 mph N/A   Clear
3:55 PM 64.9 °F - 17.6 °F 16% 29.88 in 10.0 mi NW 28.8 mph 34.5 mph N/A   Clear
4:35 PM 63.5 °F - 16.0 °F 16% 29.90 in 10.0 mi West 27.6 mph 35.7 mph N/A   Scattered Clouds
4:55 PM 62.2 °F - 16.9 °F 17% 29.91 in 10.0 mi NW 21.9 mph 32.2 mph N/A   Scattered Clouds
5:15 PM 61.2 °F - 19.2 °F 20% 29.92 in 10.0 mi WNW 26.5 mph 32.2 mph N/A   Clear
5:35 PM 60.1 °F - 20.1 °F 21% 29.93 in 10.0 mi WNW 18.4 mph - N/A   Clear
5:55 PM 59.0 °F - 19.8 °F 22% 29.95 in 10.0 mi WNW 16.1 mph 26.5 mph N/A   Clear
6:15 PM 57.4 °F - 20.8 °F 24% 29.97 in 10.0 mi WNW 12.7 mph - N/A   Clear
6:35 PM 55.8 °F - 20.3 °F 25% 29.98 in 10.0 mi WNW 10.4 mph - N/A   Clear
6:55 PM 54.1 °F - 19.9 °F 26% 29.99 in 10.0 mi NW 5.8 mph - N/A   Clear
7:15 PM 51.4 °F - 19.4 °F 28% 30.01 in 10.0 mi NW 5.8 mph - N/A   Clear
7:35 PM 48.4 °F - 18.5 °F 31% 30.02 in 10.0 mi WNW 6.9 mph - N/A   Clear
7:55 PM 47.1 °F - 18.5 °F 32% 30.02 in 10.0 mi WNW 4.6 mph - N/A   Clear
8:15 PM 47.3 °F - 17.8 °F 31% 30.03 in 10.0 mi WSW 4.6 mph - N/A   Clear
8:35 PM 46.6 °F - 18.1 °F 32% 30.04 in 10.0 mi WSW 8.1 mph - N/A   Clear
8:55 PM 47.5 °F - 19.0 °F 32% 30.05 in 10.0 mi West 4.6 mph - N/A   Clear
10:35 PM 41.7 °F 37.3 °F 18.5 °F 39% 30.11 in 10.0 mi WNW 6.9 mph - N/A   Clear
10:55 PM 39.7 °F 34.3 °F 18.0 °F 42% 30.12 in 10.0 mi NW 8.1 mph - N/A   Clear
11:15 PM 40.3 °F 34.4 °F 18.5 °F 42% 30.12 in 10.0 mi NW 9.2 mph - N/A   Clear
11:35 PM 40.3 °F 34.9 °F 18.5 °F 42% 30.14 in 10.0 mi NW 8.1 mph - N/A   Clear
11:55 PM 37.6 °F 35.1 °F 17.8 °F 45% 30.15 in 10.0 mi NNE 3.5 mph - N/A   Clear